THORAD AGENA D DEB

Satellite information

Favourite Embed

Satellite Type and Status

DEBRISIN ORBIT

Key statistics

Satellite THORAD AGENA D DEB at a glance.

Uptime

20423

Days in orbit

Revolutions

≈ 14.5

Per day

Orbit

LEO

Low Earth Orbit

Inclination

69.9

Latest

Satellite identification and parameters

Extended collection of information and parameters for THORAD AGENA D DEB.

Object identification

Identified? True

Debris? True

Object name: THORAD AGENA D DEB

International designator: 1969-082JP

Object number (NORAD): 5755

Object ID (CCSDS): 5755

Country: UNITED STATES OF AMERICA (US)

Current information (Y/N): Y

RCS size: SMALL

Orbital parameters

Period: 99.506 minutes

Inclination: 69.9251 deg

SMA: 7113.11 km

Apoapsis: 738.245 km

Periapsis: 731.705 km

RAAN: 255.8668 deg

Eccentricy: 0.0004597

Argument of periapsis: 62.6433 deg

Mean anomaly: 297.5166 deg

Mean motion: 14.47149682 rev/day

Mean motion (dot): 0.00003233 rev/day2

B* drag term: 0.00090134269 1/REarth

Two-line elements (TLE)

Creation date: Aug. 30, 2025, 3:38 a.m.

Reference frame: TEME

Reference center: EARTH

Epoch: Aug. 29, 2025, 9:58 a.m. UTC

TLE line 0: 0 THORAD AGENA D DEB

TLE line 1: 1 05755U 69082JP 25241.41582148 .00003233 00000-0 90134-3 0 9995

TLE line 2: 2 05755 69.9251 255.8668 0004597 62.6433 297.5166 14.47149682892433

Live tracking on map

Real-time ground track for satellite THORAD AGENA D DEB.

In-orbit conjunctions

A list of the most updated potential collisions computed for object THORAD AGENA D DEB.

Target Orbit TCA Probability of collision Miss distance Type
FENGYUN 1C DEB SSO 2025-05-24 23:52:54 0.0002371374 39.0 (m) DEBRIS
FENGYUN 1C DEB SSO 2024-12-10 07:03:21 0.0001193148 100.0 (m) DEBRIS
IRIDIUM 33 DEB LEO 2024-11-15 01:35:05 0.0001458506 656.0 (m) DEBRIS

Associated space launch

Poppy was the follow-on ELINT system, which succeeded the Grab ELINT satellite system.

THORAD AGENA D DEB was lifted into orbit during the mission ‘Thorad SLV-2G Agena D | Poppy 8A,B,C,D’, on board a Thorad SLV-2G Agena D space rocket.

The launch took place on Sept. 30, 1969, 1:40 p.m. from Space Launch Complex 1W.

For more information about the launch, click the button.

Launch to space Thorad SLV-2G Agena D | Poppy 8A,B,C,D
Thorad SLV-2G Agena D | Poppy 8A,B,C,D

Agency: N/A

Status: Launch Successful

Launch date: Sept. 30, 1969, 1:40 p.m. UTC

Rocket: Thorad SLV-2G Agena D

Launch pad: Space Launch Complex 1W

Location: Vandenberg SFB, CA, USA

...

Latest news about this satellite

There are no fresh news available about this satellite. Check back as we update our databases every day.


Newsletter sign-up

Weekly statistics, charts and insights to help you stay on top of the space industry.